Regional Weather Roundup
Issued by NWS Albany, NY

Home | Current Version | Previous Version | Graphics & Text | Print | Product List | Glossary On
Versions: 1 2 3 4 5 6 7 8 9 10 11 12 13 14 15 16 17 18 19 20 21 22 23 24 25 26 27 28 29 30 31 32 33 34 35 36 37 38 39 40 41 42 43 44 45 46 47 48 49 50
000
ASUS41 KALY 262210
RWRALY

NEW YORK STATE HOURLY WEATHER ROUNDUP
NATIONAL WEATHER SERVICE ALBANY NY
500 PM EST THU FEB 26 2015

NOTE: "FAIR" INDICATES FEW OR NO CLOUDS BELOW 12,000 FEET WITH NO
SIGNIFICANT WEATHER AND/OR NO OBSTRUCTIONS TO VISIBILITY.

NYZ032-033-038>043-046>054-057>066-NYZ062>081-262300-
EAST


CITY           SKY/WX    TMP DP  RH WIND       PRES   REMARKS
ALBANY         CLOUDY    18  -4  37 NE7       30.05R WCI   9
GLENS FALLS    CLOUDY    15  -5  40 NE10      30.05R WCI   2
POUGHKEEPSIE   CLOUDY    21   9  59 N8        30.03R WCI  11
NEWBURGH       CLOUDY    19  12  73 N8        30.01R WCI   9
MONTGOMERY     CLOUDY    20  11  68 NE10      30.00R WCI   9
WHITE PLAINS   MOCLDY    24  12  60 NW10      29.96R WCI  14
ISLIP          CLOUDY    25  14  63 N9        29.97R WCI  15
NEW YORK CITY  CLOUDY    26  14  60 N10       30.00R WCI  16
CENTRAL PARK   CLOUDY    26  12  55 VRB7      30.02R WCI  18
$$

NYZ005>009-017-018-044>046-055-056-262300-
CENTRAL


CITY           SKY/WX    TMP DP  RH WIND       PRES   REMARKS
FULTON         CLOUDY    12  -4  48 N9        30.10R WCI   0
SYRACUSE       CLOUDY    16   0  49 NW13      30.09R WCI   2
ROME           CLOUDY    15   1  53 W10       30.07R WCI   2
ELMIRA         CLOUDY    15   6  67 NE8       30.02R WCI   4
BINGHAMTON     CLOUDY    16   6  65 N8        29.93R WCI   5
MONTICELLO     PTCLDY    21  16  79 W6        29.92R WCI  14
$$

NYZ026>034-041>043-262300-
NORTH


CITY           SKY/WX    TMP DP  RH WIND       PRES   REMARKS
WATERTOWN      CLOUDY    12  -6  44 N10       30.13R WCI  -1
FORT DRUM      NOT AVBL
MASSENA        PTCLDY     7 -12  41 W6        30.15R WCI  -3
SARANAC LAKE   PTCLDY     8 -10  43 NW6       29.92R WCI  -2
PLATTSBURGH    PTCLDY     8  -6  52 NE9       30.11S WCI  -5
$$

NYZ001>004-010>016-019>021-262300-
WEST


CITY           SKY/WX    TMP DP  RH WIND       PRES   REMARKS
NIAGARA FALLS  CLOUDY    13   6  74 NE10      30.12R WCI   0
BUFFALO        CLOUDY    13   5  70 NE12      30.09S WCI  -1
DUNKIRK        LGT SNOW  13   9  84 W6        30.10R FOG     WCI   4
JAMESTOWN      PTSUNNY   10   3  72 N7        29.97R WCI   0
WELLSVILLE     LGT SNOW  12   5  73 N12       29.94R WCI  -2
ROCHESTER      LGT SNOW  12   4  70 N9        30.12R WCI   0
PENN YAN       CLOUDY    13   2  61 VRB3      30.05R
$$

             KEY
       WCI = WIND CHILL INDEX
       VSB = VISIBILITY
       HX  = HEAT INDEX
$$



USA.gov is the U.S. government's official web portal to all federal, state and local government web resources and services.